Terug naar catalogus

PRAETORIAN SDA_513

ActiefPO
NORAD 100071·PAYLOAD·🇺🇸 United States

Gelanceerd Jul 16, 2026 vanaf Vandenberg Space Force Base

Loading…

Volgende Passages (komende 24 uur)

TLE

VersSource: Space-Track

Epoch: Sep 14, 2026, 09:46 UTC

1 A0071U 26163N   26257.40728333  .00000087  00000-0  65324-4 0  9997
2 A0071  81.4807 255.5518 0014236  56.5449 303.7068 13.85454957  8251

Volg PRAETORIAN SDA_513 in realtime met AllMySat

Download on the App Store